CAPE
1970 1653 1913 2470 2788 2750 2250 2430 2542 2963 2513 2382 2587 2674 2826 3106 2812 2787 2207 1720 1317 566 255 3 0 0 0 0 0 0 0 0 0 0 0 0 0 0 1 0 0 0 0
2020 2109 2148 2480 2704 2950 3025 2959 2789 2658 2904 2657 3079 3040 3169 2998 2839 2252 2282 1710 1253 571 7 0 0 0 0 0 0 0 0 0 0 0 0 0 0 0 0 0 0 0 0
2150 2126 2283 2332 2707 2615 2985 3009 3088 2944 2858 2958 3107 3038 3031 3022 2637 2187 1645 1465 399 201 0 0 0 0 0 0 0 0 0 0 0 0 0 0 0 0 0 0 0 0 0
2139 2176 2304 2423 2711 2756 2999 3260 3118 3370 3198 3017 3031 3209 3220 3011 2444 1964 1502 666 72 0 0 0 0 0 0 0 0 0 0 0 0 0 0 0 0 0 0 0 0 0 0
2039 2091 2112 2568 2604 2957 3341 3594 3445 3466 3252 3130 3228 3175 2962 2822 2552 1658 980 112 0 0 0 0 0 0 0 0 0 0 0 0 0 0 0 0 0 0 0 0 0 0 0
1923 2050 1974 2621 2703 2972 3273 3441 3717 3381 3168 3062 3154 3098 3056 2627 1801 1214 663 0 0 0 0 0 0 0 0 0 0 0 0 0 0 0 0 0 0 0 0 0 0 8 0
1662 1840 2252 2312 2955 3075 3233 3392 3392 3311 3326 3443 3054 2947 2217 1203 923 996 6 0 0 0 0 0 0 0 0 0 0 0 0 0 0 0 0 0 0 0 0 0 0 0 0
1690 1999 2507 2468 2743 3135 3258 3486 3414 3309 3255 3099 3410 2866 1562 687 470 29 0 0 0 0 0 0 0 0 0 0 0 0 0 0 0 0 0 0 0 0 0 0 0 0 0
1890 2099 2558 2794 2861 3274 3442 3523 3389 3394 3556 3678 3366 2434 1498 259 34 0 0 0 0 0 0 0 0 0 0 0 0 0 0 0 0 0 0 0 0 0 0 0 0 0 0
2465 2397 2693 2970 2952 3456 3363 3672 3734 3467 3494 4016 3622 2152 1269 500 0 0 0 0 0 0 0 0 0 0 0 0 0 0 0 0 0 0 0 0 0 0 0 0 0 0 1
3518 3322 3332 3326 3221 3501 3644 3917 3690 3787 3861 3705 3376 1736 1098 531 0 5 0 0 0 0 0 0 0 0 0 0 0 0 0 0 0 0 0 0 0 0 0 0 0 0 1
2958 3519 3492 3805 3754 3895 3945 3913 3809 3714 3786 3493 2374 1819 987 147 2 0 0 0 0 0 0 0 0 0 0 0 0 0 0 0 0 0 0 0 0 0 0 0 0 0 0
3282 3450 3644 3923 3478 4066 4033 3979 3970 3731 3846 3505 2688 2145 1138 261 1 0 0 0 0 0 0 0 0 0 0 0 0 0 0 0 0 0 0 0 0 0 0 0 0 0 0
3439 3766 3637 3825 3436 4001 4031 3977 3943 3831 3787 3864 2830 2023 1265 702 47 0 0 0 0 0 0 0 0 0 0 0 0 0 0 0 0 0 0 0 0 0 0 0 0 0 0
3308 3937 3759 3692 3211 4034 3495 2723 3915 3800 3693 3828 2358 1873 1417 1165 302 0 0 0 0 0 0 0 0 0 0 0 0 0 0 0 0 0 0 0 0 0 0 0 0 0 0
2297 3491 3492 3502 3133 3799 567 5 1 0 0 2022 2207 1819 1478 1208 73 0 0 0 0 0 0 0 0 0 0 0 0 0 0 0 0 0 0 0 0 0 0 0 0 0 0
1374 2218 3400 3434 3269 2953 1177 769 276 0 0 0 721 1614 1273 44 0 0 0 0 0 0 0 0 0 0 0 0 0 0 0 0 0 0 0 0 0 0 0 0 0 0 0
200 177 1240 2767 3082 3332 1613 1143 772 1013 889 0 0 0 28 0 0 0 0 0 0 0 0 0 0 0 0 0 0 0 0 0 0 0 0 0 0 0 0 0 0 0 0
10 1 546 1223 1772 2122 2032 1621 1359 1837 979 0 0 0 0 0 0 0 0 0 0 0 0 0 0 0 0 0 0 0 0 0 0 0 0 0 0 0 0 0 0 0 0
0 0 2 75 188 818 1190 1878 1894 869 401 345 7 0 0 0 0 0 0 0 0 0 0 0 0 0 0 0 0 0 0 0 0 0 0 0 0 0 0 0 0 0 0
1 0 0 1 1 4 1 5 1031 988 883 515 0 0 0 0 0 0 0 0 0 0 0 0 0 0 0 0 0 0 0 0 0 0 0 0 0 0 0 0 0 0 0
1 0 0 3 4 4 2 0 103 194 93 0 0 0 0 0 0 0 0 0 0 0 0 0 0 0 0 0 0 0 0 0 0 0 0 0 0 0 0 0 0 0 0
0 0 2 1 1 3 7 7 5 4 2 0 0 0 0 0 0 0 0 0 0 0 0 0 0 0 0 0 0 0 0 0 0 0 0 0 0 0 0 0 0 0 0
0 0 0 0 0 3 4 3 4 0 1 1 1 2 0 8 16 0 0 0 0 0 0 0 0 0 0 0 0 0 0 0 0 0 0 0 0 0 0 0 0 0 0
0 0 0 0 0 0 0 1 2 1 3 1 2 2 6 4 1 1 2 0 0 0 0 0 0 0 0 0 0 0 0 0 0 0 0 0 0 0 0 0 0 0 0
0 0 0 0 0 0 0 0 1 1 3 2 6 4 3 2 2 2 2 0 0 0 0 0 0 0 0 0 0 0 0 0 0 0 0 0 0 0 0 0 0 0 0
CIN
-112 -149 -115 -86 -63 -67 -101 -78 -53 -28 -42 -52 -51 -58 -49 -21 -22 -14 -52 -72 -97 -168 -223 -96 -0 -0 -0 -0 -0 -0 -0 -0 -0 -0 -0 -0 -0 -0 -22 -0 -0 -0 -0
-117 -116 -121 -110 -84 -58 -59 -61 -61 -48 -52 -62 -46 -51 -32 -14 -20 -57 -55 -71 -77 -160 -23 -0 -0 -0 -0 -0 -0 -0 -0 -0 -0 -0 -0 -0 -0 -0 -0 -0 -0 -0 -0
-112 -114 -116 -120 -94 -96 -78 -68 -51 -52 -71 -61 -47 -45 -33 -14 -42 -75 -117 -90 -286 -260 -0 -0 -0 -0 -0 -0 -0 -0 -0 -0 -0 -0 -0 -0 -0 -0 -0 -0 -0 -0 -0
-145 -126 -114 -115 -104 -107 -84 -55 -45 -35 -55 -59 -44 -24 -19 -15 -80 -100 -135 -280 -121 -0 -0 -0 -0 -0 -0 -0 -0 -0 -0 -0 -0 -0 -0 -0 -0 -0 -0 -0 -0 -0 -0
-181 -156 -146 -119 -115 -86 -54 -37 -28 -34 -49 -60 -30 -23 -27 -27 -89 -175 -268 -558 -0 -0 -0 -0 -0 -0 -0 -0 -0 -0 -0 -0 -0 -0 -0 -0 -0 -0 -0 -0 -0 -0 -0
-221 -194 -178 -113 -95 -74 -54 -37 -20 -45 -59 -72 -36 -25 -20 -76 -218 -280 -392 -0 -0 -0 -0 -0 -0 -0 -0 -0 -0 -0 -0 -0 -0 -0 -0 -0 -0 -0 -0 -0 -0 -39 -0
-259 -232 -205 -143 -88 -75 -56 -38 -30 -56 -61 -60 -52 -53 -184 -390 -414 -337 -75 -0 -0 -0 -0 -0 -0 -0 -0 -0 -0 -0 -0 -0 -0 -0 -0 -0 -0 -0 -0 -0 -0 -0 -0
-295 -250 -222 -173 -125 -82 -47 -24 -35 -68 -71 -77 -38 -123 -337 -537 -564 -558 -0 -0 -0 -0 -0 -0 -0 -0 -0 -0 -0 -0 -0 -0 -0 -0 -0 -0 -0 -0 -0 -0 -0 -0 -0
-272 -258 -222 -192 -158 -94 -53 -26 -31 -59 -61 -53 -43 -206 -361 -721 -922 -0 -0 -0 -0 -0 -0 -0 -0 -0 -0 -0 -0 -0 -0 -0 -0 -0 -0 -0 -0 -0 -0 -0 -0 -0 -0
-218 -233 -224 -187 -163 -107 -96 -52 -44 -72 -70 -35 -41 -266 -428 -613 -0 -0 -0 -0 -0 -0 -0 -0 -0 -0 -0 -0 -0 -0 -0 -0 -0 -0 -0 -0 -0 -0 -0 -0 -0 -0 -0
-101 -136 -153 -147 -145 -121 -91 -54 -62 -58 -48 -40 -81 -351 -475 -621 -0 -591 -0 -0 -0 -0 -0 -0 -0 -0 -0 -0 -0 -0 -0 -0 -0 -0 -0 -0 -0 -0 -0 -0 -0 -0 -1
-100 -93 -106 -104 -74 -67 -60 -62 -70 -62 -53 -56 -232 -311 -494 -833 -733 -0 -0 -0 -0 -0 -0 -0 -0 -0 -0 -0 -0 -0 -0 -0 -0 -0 -0 -0 -0 -0 -0 -0 -0 -0 -0
-100 -99 -89 -58 -75 -44 -40 -48 -38 -50 -33 -51 -178 -256 -445 -742 -643 -0 -0 -0 -0 -0 -0 -0 -0 -0 -0 -0 -0 -0 -0 -0 -0 -0 -0 -0 -0 -0 -0 -0 -0 -0 -0
-94 -71 -103 -75 -81 -36 -37 -41 -26 -23 -27 -32 -171 -283 -424 -540 -647 -0 -0 -0 -0 -0 -0 -0 -0 -0 -0 -0 -0 -0 -0 -0 -0 -0 -0 -0 -0 -0 -0 -0 -0 -0 -0
-59 -27 -54 -61 -67 -24 -81 -206 -27 -30 -41 -65 -279 -344 -407 -423 -714 -0 -0 -0 -0 -0 -0 -0 -0 -0 -0 -0 -0 -0 -0 -0 -0 -0 -0 -0 -0 -0 -0 -0 -32 -31 -0
-148 -23 -38 -48 -58 -26 -582 -36 -0 -0 -0 -317 -281 -353 -405 -445 -963 -0 -0 -0 -0 -0 -0 -0 -0 -0 -0 -0 -0 -0 -0 -0 -0 -0 -0 -0 -0 -0 -0 -0 -0 -0 -0
-272 -123 -26 -28 -30 -64 -344 -430 -591 -0 -0 -0 -663 -379 -456 -974 -0 -0 -0 -0 -0 -0 -0 -0 -0 -0 -0 -0 -0 -0 -0 -0 -0 -0 -0 -0 -0 -0 -0 -0 -0 -0 -0
-679 -710 -257 -52 -34 -24 -161 -259 -385 -330 -424 -2 -0 -0 -835 -0 -0 -0 -0 -0 -0 -0 -0 -0 -0 -0 -0 -0 -0 -0 -0 -0 -0 -0 -0 -0 -0 -0 -0 -0 -0 -0 -0
-394 -0 -401 -248 -144 -89 -109 -134 -164 -112 -337 -0 -0 -0 -0 -0 -0 -0 -0 -0 -0 -0 -0 -0 -0 -0 -0 -0 -0 -0 -0 -0 -0 -0 -0 -0 -0 -0 -0 -0 -0 -0 -0
-0 -0 -166 -527 -272 -137 -114 -84 -85 -255 -431 -493 -684 -0 -0 -0 -0 -0 -0 -0 -0 -0 -0 -0 -0 -0 -0 -0 -0 -0 -0 -0 -0 -0 -0 -0 -0 -0 -0 -0 -0 -0 -0
-0 -0 -0 -0 -0 -0 -0 -0 -66 -151 -202 -303 -0 -0 -0 -0 -0 -0 -0 -0 -0 -0 -0 -0 -0 -0 -0 -0 -0 -0 -0 -0 -0 -0 -0 -0 -0 -0 -0 -0 -0 -0 -0
-0 -0 -0 -0 -0 -0 -0 -0 -164 -137 -374 -237 -0 -0 -0 -0 -0 -0 -0 -0 -0 -0 -0 -0 -0 -0 -0 -0 -0 -0 -0 -0 -0 -0 -0 -0 -0 -0 -0 -0 -0 -0 -0
-0 -0 -0 -0 -0 -0 -0 -0 -0 -0 -0 -0 -0 -0 -0 -0 -0 -0 -0 -0 -0 -0 -0 -0 -0 -0 -0 -0 -0 -0 -0 -0 -0 -0 -0 -0 -0 -0 -0 -0 -0 -0 -0
-0 -0 -0 -0 -0 -0 -0 -0 -0 -0 -0 -0 -0 -0 -0 -656 -518 -0 -0 -0 -0 -0 -0 -0 -0 -0 -0 -0 -0 -0 -0 -0 -0 -0 -0 -0 -0 -0 -0 -0 -0 -0 -0
-0 -0 -0 -0 -0 -0 -0 -0 -0 -0 -0 -0 -0 -0 -0 -0 -0 -0 -510 -0 -0 -0 -0 -0 -0 -0 -0 -0 -0 -0 -0 -0 -0 -0 -0 -0 -0 -0 -0 -0 -0 -0 -0
-0 -0 -0 -0 -0 -0 -0 -0 -0 -0 -0 -0 -0 -0 -0 -0 -0 -0 -0 -0 -0 -0 -0 -0 -0 -0 -0 -0 -0 -0 -0 -0 -0 -0 -0 -0 -0 -0 -0 -0 -0 -0 -0
Wind_Speed
14 13 12 9 7 7 6 6 6 4 3 1 2 2 3 3 4 4 5 6 6 6 6 7 7 6 5 5 5 4 4 3 3 3 2 2 5 4 6 5 5 4 3
16 13 13 10 8 8 7 7 7 6 5 4 4 4 3 2 4 6 6 5 6 6 7 8 7 5 7 6 5 6 5 4 4 6 3 4 5 4 4 5 4 5 3
15 14 12 10 9 9 8 7 7 7 7 6 5 6 5 4 6 5 7 6 7 7 7 8 6 7 6 5 6 7 5 6 6 4 3 2 2 4 3 2 2 4 3
15 14 13 12 10 9 7 7 7 7 6 6 5 5 4 4 9 7 7 9 9 8 8 8 7 7 7 7 7 6 6 7 5 5 5 4 2 3 1 1 2 1 1
16 14 13 10 9 8 7 7 7 7 6 6 5 5 5 4 7 9 8 10 11 9 7 7 6 12 16 11 6 6 7 6 5 5 3 2 3 4 3 3 3 1 2
16 15 12 8 9 8 8 7 7 7 7 6 5 6 5 3 15 13 11 10 10 10 9 7 6 12 13 16 14 12 9 6 4 3 2 2 5 3 3 3 2 1 3
15 14 13 12 8 8 8 8 8 8 6 6 7 5 7 8 13 14 16 9 9 9 8 7 7 6 9 7 10 10 9 7 6 5 2 4 3 4 5 5 5 5 3
13 13 12 12 10 8 8 8 8 6 8 6 6 7 9 5 12 14 14 9 8 7 8 7 7 5 6 7 6 6 4 4 3 4 5 2 2 4 4 3 4 4 3
13 13 13 13 11 10 9 9 8 7 6 6 5 9 9 8 11 15 12 8 7 7 7 7 8 6 8 9 7 5 3 2 2 8 8 6 13 16 12 6 10 6 3
11 11 11 12 12 11 11 10 6 6 5 5 6 8 11 11 11 14 12 7 7 6 5 7 10 7 6 6 6 6 3 2 3 1 1 3 4 9 16 8 4 6 4
8 11 11 11 12 10 10 6 8 7 6 6 7 7 10 12 10 13 13 8 8 6 5 4 4 8 7 6 8 4 3 2 3 4 2 4 3 5 6 7 6 6 6
8 9 10 10 10 9 12 9 8 8 8 7 9 7 5 7 10 8 12 11 11 7 6 4 5 8 5 4 5 6 6 6 3 3 3 3 4 3 3 5 7 7 6
8 8 9 9 8 9 11 10 8 8 7 8 8 8 7 5 6 11 11 9 12 7 6 7 9 8 6 5 6 4 3 3 3 3 1 2 3 5 4 5 4 7 8
6 7 7 10 9 7 8 9 9 9 8 9 9 7 8 7 6 5 4 6 9 8 12 9 6 4 2 3 3 3 1 4 5 4 1 1 4 3 2 2 2 1 6
2 6 7 7 9 7 7 5 9 9 9 10 9 10 10 9 8 10 10 7 7 10 10 5 4 2 2 0 1 1 1 3 3 3 2 2 3 3 2 1 2 2 3
5 4 5 6 7 7 7 4 9 6 2 9 17 13 7 12 19 18 16 16 19 18 6 6 4 4 4 4 3 3 1 3 2 3 4 2 2 3 4 3 4 4 3
6 8 4 6 7 8 8 8 7 4 13 10 11 15 16 16 21 18 19 19 19 13 5 5 5 5 5 5 5 4 4 4 4 4 3 3 2 2 5 4 4 4 4
11 10 7 5 6 8 9 7 6 7 6 5 14 9 8 21 21 20 20 16 6 3 6 7 6 6 5 6 5 4 4 4 3 4 3 3 4 3 4 5 4 5 4
13 10 9 8 4 6 7 9 9 7 7 7 6 9 10 13 14 22 22 10 10 7 6 6 6 6 5 5 5 5 6 5 4 4 3 4 5 5 4 5 6 7 6
10 21 15 8 10 10 4 4 8 9 9 6 5 6 7 8 8 10 7 9 9 9 8 6 7 6 6 6 6 6 5 5 5 4 4 5 5 6 5 5 6 7 4
8 13 24 12 11 8 10 11 10 7 8 7 4 4 9 8 8 9 7 6 7 5 4 4 4 5 5 5 7 7 6 6 6 5 5 5 6 5 5 4 5 6 7
7 8 18 9 10 11 9 12 11 8 8 8 6 5 8 3 4 5 4 3 3 4 3 1 2 4 7 7 6 9 8 8 6 5 6 6 5 5 6 5 5 5 8
10 15 10 7 8 6 9 9 7 7 8 7 6 7 4 3 3 3 3 4 3 2 0 1 3 3 3 6 7 9 10 9 9 7 6 6 5 6 6 6 6 5 6
11 11 10 9 10 10 8 8 6 10 9 9 11 9 8 4 0 3 4 5 4 5 4 2 2 3 3 5 5 6 5 6 8 9 9 6 6 7 6 7 6 7 6
9 10 10 10 10 9 10 8 6 5 6 13 12 12 10 10 9 9 5 3 5 4 4 4 3 2 4 7 7 10 10 14 11 11 7 8 8 9 6 7 9 6 4
7 9 8 7 8 9 8 9 9 10 12 14 7 6 8 8 8 9 9 9 6 3 4 2 4 4 5 5 9 13 11 13 11 12 10 9 8 7 6 7 11 6 9
Wind_Direction
186 188 191 191 184 181 198 212 220 229 216 231 264 288 286 300 311 39 98 115 106 94 79 71 56 59 48 45 40 38 46 79 110 358 85 26 8 12 112 119 125 122 106
185 185 192 187 178 180 195 204 205 210 228 220 233 246 256 270 304 110 113 119 107 102 90 79 65 66 55 48 47 28 17 16 91 88 27 7 24 7 74 123 162 143 148
179 183 187 188 182 186 188 192 200 202 218 223 220 233 237 238 96 110 114 105 106 90 95 89 79 68 53 48 42 43 24 45 49 76 24 333 335 10 22 15 133 110 158
178 182 184 187 186 180 181 182 185 205 208 217 222 230 208 221 127 128 115 112 96 86 82 79 73 82 89 73 60 46 43 51 49 55 34 348 333 313 351 317 350 173 183
175 180 185 175 177 166 171 174 177 198 204 217 206 230 222 206 148 135 123 120 111 101 91 89 82 91 87 88 89 59 63 58 55 54 26 342 327 343 339 293 280 244 249
172 181 178 161 168 169 170 171 171 191 203 213 210 218 220 97 136 132 131 122 117 115 113 100 92 94 93 97 92 97 108 105 83 78 354 356 337 315 304 307 286 1 33
169 172 169 172 167 168 169 164 177 193 190 200 204 201 123 137 140 134 121 127 125 132 136 135 125 121 111 109 107 98 97 104 129 135 83 8 355 319 308 323 352 79 81
164 170 165 169 171 161 163 168 183 173 190 187 196 132 138 139 142 127 119 127 127 137 146 151 130 151 162 146 127 114 111 97 107 96 92 43 26 345 5 323 354 127 113
167 170 168 167 166 165 170 169 185 167 183 180 161 143 143 144 154 136 126 132 133 144 142 143 133 132 141 168 136 151 154 105 94 123 130 83 42 46 42 39 33 36 355
165 167 162 163 169 172 171 173 174 175 172 167 146 154 148 155 167 148 142 141 133 137 130 134 130 133 90 94 137 130 105 124 176 267 15 43 12 46 49 47 37 45 27
145 154 159 165 169 164 163 169 171 167 163 171 137 144 152 162 170 159 141 140 144 136 131 131 138 127 109 106 153 123 157 104 30 190 185 131 67 46 50 42 41 49 35
153 155 165 161 170 168 169 172 169 169 168 143 141 138 139 154 149 150 136 143 142 137 146 151 153 143 137 114 96 108 59 57 77 97 52 102 117 85 67 66 60 55 40
155 160 162 160 166 160 169 172 172 175 175 157 161 153 145 153 139 155 146 135 140 136 139 149 150 157 140 85 114 98 47 65 127 89 33 302 132 152 134 106 77 65 59
164 162 159 159 166 168 170 174 180 186 186 171 164 155 147 165 167 148 122 120 121 102 124 133 143 162 129 156 100 322 357 145 146 136 203 325 112 127 156 164 143 157 65
301 168 163 160 176 173 158 192 192 199 194 176 166 160 157 175 182 155 146 147 143 142 120 105 114 115 290 181 293 193 116 52 100 122 93 20 44 90 142 182 121 95 87
354 214 168 163 183 173 149 128 55 30 302 185 164 167 175 154 146 146 145 142 135 140 124 149 150 165 190 197 205 215 151 128 119 108 101 94 78 103 97 60 58 58 92
5 347 189 180 189 168 174 162 144 45 66 61 176 157 156 156 148 150 144 139 144 134 134 165 164 174 197 196 200 177 167 176 134 134 128 124 92 106 103 102 82 74 59
20 11 348 249 199 184 183 174 163 155 145 108 48 68 128 150 152 138 130 121 148 173 154 168 178 187 199 193 186 173 164 152 133 154 156 152 130 116 109 109 103 100 82
37 9 7 3 336 213 197 183 173 157 122 119 110 65 65 86 125 142 154 159 169 173 169 178 186 192 200 191 175 163 158 164 162 152 160 132 120 116 110 115 118 112 99
61 44 44 35 9 11 335 216 157 122 120 113 110 121 137 120 145 163 167 162 177 188 191 176 192 193 188 177 153 160 156 153 162 155 151 135 137 133 136 132 129 128 121
51 58 48 12 31 20 49 325 83 90 99 91 86 112 141 138 154 169 180 176 175 175 191 195 193 192 178 164 153 162 163 166 170 165 153 159 148 142 149 156 142 127 126
16 76 70 34 1 18 13 50 19 21 84 93 83 83 34 75 125 148 180 150 147 155 173 123 357 189 170 151 174 170 171 170 170 165 167 170 168 160 148 155 147 141 142
34 52 56 69 85 25 48 40 48 50 58 53 96 112 84 80 116 131 176 198 196 226 200 120 85 334 222 168 165 174 172 177 178 161 173 172 170 165 151 146 155 148 141
37 42 49 47 48 52 43 44 25 50 51 58 56 16 29 15 122 173 211 209 188 195 213 171 135 40 236 204 159 172 171 164 168 175 165 174 172 177 150 145 162 171 164
50 46 45 44 52 46 47 34 23 44 53 62 40 35 6 4 358 1 319 216 160 173 189 182 139 126 9 230 187 178 177 171 176 171 161 168 176 182 174 161 168 168 165
46 58 50 51 60 59 53 41 29 33 34 53 51 39 32 17 1 355 346 344 338 185 174 141 164 199 249 258 221 189 183 182 182 174 168 175 176 180 182 173 182 167 173